Погода в Выгоде

Украина / Ивано-Франковская область     48°55′40″N   23°55′09″E
темп.,
°C
ветер,
м/с
пор.,
м/с
влажн.,
%
обл.,
%
осадки,
мм/ч
давл.,
гПа
погр.,
м
6 марта, сб
сб623:00−4сз2792100 0.7 1023319
02:00−7з229284 0.8 102624
05:00−8зюз238722 0.0 102740
08:00−6зюз348455 0.0 1029147
11:00−1сз467530 0.2 10301215
14:000сз687128 0.6 10301447
17:00−1сз477475 0.2 1030943
20:00−5зюз468142 0.2 1031113
7 марта, вс
вс723:00−4зюз5107736 0.0 1031215
02:00−4юз5137318 0.0 1030307
05:00−4юз516760 0.0 1027539
08:00−3зюз617710 0.0 1026731
11:00+1зюз9156510 0.0 1024942
14:00+2зюз8136652 0.0 10221071
17:00+1зюз614678 0.0 1019834
20:00−1зюз616714 0.0 1020565
8 марта, пн
пн823:00−2зюз515730 0.0 1019533
02:00−2зюз4137628 0.0 1019398
05:00−4зюз368089 0.0 1017161
08:00−3зюз497894 0.0 1018451
11:000зсз4680100 0.1 1017809
14:00+1ссз4685100 0.8 1018699
17:000ссз4672100 0.6 10181004
20:00−4зсз248385 0.6 102078
9 марта, вт
вт923:00−5зюз33825 0.0 102257
02:00−5зюз348318 0.0 102288
05:00−5з238566 0.0 1023154
08:00−4зсз128879 0.1 1024261
11:00−2с1171100 0.1 1024808
14:00−1св1163100 0.2 1024993
17:00−1в1163100 0.0 1023991
20:00−3юв1274100 0.0 102564
10 марта, ср
ср1023:00−5юз128467 0.0 102623
02:00−6зюз228333 0.0 102553
05:00−6юз23770 0.0 102579
08:00−5юз23650 0.0 102593
11:00+1зюз254234 0.0 1024691
14:00+3зюз465346 0.0 1022981
17:00+2зюз277033 0.0 1020684
20:00−2ююз3137654 0.0 1020484